GW0189 Weather Reports


time (UTC)temp
C
wind
direction
speed
KPH
gust
KPH
rain 1hr
cm
rain 24hr
cm
rain mn
cm
humidity
%
barometer
mb
20260503213033 14 286 16.1 29.0 0.00 0.00 0.00 76 1013.4
20260503211532 14 263 16.1 27.4 0.00 0.00 0.00 76 1013.5
20260503210034 14 291 12.9 25.7 0.00 0.00 0.00 77 1013.5
20260503204533 14 295 9.7 22.5 0.00 0.00 0.00 77 1013.3
20260503203040 14 251 12.9 24.1 0.00 0.00 0.00 77 1013.5
20260503201532 14 256 14.5 22.5 0.00 0.00 0.00 75 1013.6
20260503200032 14 229 8.0 20.9 0.00 0.00 0.00 77 1013.6
20260503194534 14 254 14.5 24.1 0.00 0.00 0.00 77 1013.5
20260503193037 13 252 8.0 19.3 0.00 0.00 0.00 78 1013.7
20260503191536 13 294 6.4 19.3 0.00 0.00 0.00 80 1013.7
20260503190032 14 256 12.9 22.5 0.00 0.00 0.00 78 1013.7
20260503184534 14 271 11.3 20.9 0.00 0.00 0.00 78 1013.7
20260503183034 14 271 9.7 17.7 0.00 0.00 0.00 78 1013.5
20260503181533 14 233 6.4 19.3 0.00 0.00 0.00 80 1013.6
20260503180043 13 288 14.5 22.5 0.00 0.00 0.00 80 1013.4
20260503174535 13 257 14.5 20.9 0.00 0.00 0.00 80 1013.5
20260503173037 13 264 11.3 17.7 0.00 0.00 0.00 80 1013.4
20260503171532 13 251 6.4 16.1 0.00 0.00 0.00 79 1013.6
20260503081532 11 360 11.3 19.3 0.00 0.00 0.00 89 1011.9
20260503071532 11 277 9.7 22.5 0.00 0.00 0.00 89 1011.9
20260503060104 11 290 12.9 22.5 0.00 0.00 0.00 87 1012.1
20260503054538 11 360 14.5 25.7 0.00 0.00 0.00 87 1012.3
20260503053033 11 360 14.5 22.5 0.00 0.00 0.00 88 1012.6
20260503051529 11 252 16.1 25.7 0.00 0.00 0.00 88 1012.5
20260503050034 11 315 16.1 25.7 0.00 0.00 0.00 88 1012.5
20260503044534 11 276 17.7 27.4 0.00 0.00 0.00 88 1012.4
20260503043041 11 325 16.1 25.7 0.00 0.00 0.00 88 1012.3
20260503041533 11 360 16.1 27.4 0.00 0.00 0.00 88 1012.2
20260503040034 11 360 11.3 22.5 0.00 0.00 0.00 88 1012.2
20260503034532 11 290 16.1 24.1 0.00 0.00 0.00 88 1012.2
20260503033036 11 269 17.7 27.4 0.00 0.00 0.00 88 1011.8
20260503031534 11 252 20.9 29.0 0.00 0.00 0.00 88 1011.7
20260503030034 11 360 17.7 29.0 0.00 0.00 0.00 88 1011.5
20260503024531 11 360 16.1 32.2 0.00 0.00 0.00 87 1011.5
20260503023034 11 284 14.5 24.1 0.00 0.00 0.00 87 1011.6
20260503021547 11 360 17.7 25.7 0.00 0.00 0.00 86 1011.6
20260503020059 11 263 16.1 33.8 0.00 0.00 0.00 86 1011.6
20260503014533 11 273 19.3 30.6 0.00 0.00 0.00 85 1011.6
20260503013031 11 282 19.3 30.6 0.00 0.00 0.00 84 1011.7
20260503011532 12 265 16.1 29.0 0.00 0.00 0.00 84 1011.9
20260503010030 12 246 17.7 37.0 0.00 0.00 0.00 84 1012.0
20260503004534 12 301 17.7 27.4 0.00 0.00 0.00 83 1012.0
20260503003048 12 360 14.5 30.6 0.00 0.00 0.00 83 1012.1
20260503001535 12 258 17.7 30.6 0.00 0.00 0.00 82 1012.4
20260503000034 12 257 19.3 29.0 0.00 0.00 0.00 82 1012.4
20260502234533 12 292 14.5 30.6 0.00 0.00 0.00 82 1012.4
20260502233032 12 277 16.1 27.4 0.00 0.00 0.00 82 1012.5
20260502231532 12 244 16.1 29.0 0.00 0.00 0.00 82 1012.6
20260502230031 13 271 17.7 30.6 0.00 0.00 0.00 81 1012.9
20260502224535 12 246 16.1 29.0 0.00 0.00 0.00 82 1013.2
20260502223031 12 297 14.5 24.1 0.00 0.00 0.00 82 1013.5
20260502221531 12 271 16.1 22.5 0.00 0.00 0.00 81 1013.6
20260502220034 12 263 16.1 22.5 0.00 0.00 0.00 82 1013.9
20260502214531 12 251 12.9 27.4 0.00 0.00 0.00 82 1013.9